[[{"header":{"parameterUnit":"m.s-1","parameterCategory":1,"la1":30.2991,"la2":30.254,"lo1":-89.0895,"lo2":-89.0444,"dy":0.0017,"dx":0.0017,"nx":28,"ny":28,"refTime":"2023-10-28T03:00:00:Z","depth":0,"parameterNumber":2,"parameterNumberName":"U-component_of_WINDS"},"data":[0,0,0,0,0,0,0,0,0,0,0,0,0,0,0,0,0,0,0,0,0,0,0,0,0,0,0,0,0,0,0,0,0,0,0,0,0,0,0,0,0,0,0,0,0,0,0,0,0,0,0,0,0,0,0,0,0,0,-2.9421,-2.9422,0,-2.9427,-2.9427,-2.9427,-2.9388,-2.9387,-2.9386,-2.9385,-2.9394,-2.9395,-2.9396,0,0,0,0,0,0,0,0,0,0,0,0,0,-2.9384,-2.9385,-2.9421,-2.9422,-2.9422,-2.9427,-2.9427,-2.9427,-2.9388,-2.9387,-2.9386,-2.9384,-2.9393,-2.9395,-2.9396,0,0,0,0,0,0,0,0,0,0,0,0,0,-2.9396,-2.9385,-2.9421,-2.9403,-2.9401,-2.9427,-2.9427,-2.9427,-2.9389,-2.9387,-2.9385,-2.9384,-2.9393,-2.9395,-2.9397,-2.9442,0,0,-2.9402,-2.9403,0,0,0,0,0,0,0,0,-2.9396,-2.9398,-2.9405,-2.9404,-2.9402,-2.9405,-2.9417,-2.9432,-2.9389,-2.9393,-2.9385,-2.9383,-2.9399,-2.94,-2.9405,-2.9442,-2.9442,-2.9403,-2.9404,-2.9405,-2.9405,0,0,0,0,0,0,0,-2.9395,-2.9397,-2.9424,-2.9406,-2.9404,-2.9397,-2.9396,-2.942,-2.9406,-2.9393,-2.939,-2.9391,-2.9398,-2.9403,-2.9405,-2.9443,-2.9403,-2.9404,-2.9405,-2.9406,-2.9523,-2.9525,0,0,0,0,0,0,-2.9396,-2.9397,-2.9424,-2.9424,-2.9395,-2.9399,-2.9398,-2.9406,-2.9405,-2.9403,-2.9393,-2.9389,-2.9401,-2.9403,-2.9405,-2.9461,-2.9405,-2.9406,-2.9407,-2.9521,-2.9524,-2.9526,0,0,0,0,0,0,-2.9395,-2.9398,-2.9423,-2.941,-2.9412,-2.9401,-2.941,-2.9407,-2.9412,-2.9405,-2.9403,-2.94,-2.94,-2.9403,-2.9434,-2.9461,-2.9407,-2.9409,-2.9519,-2.9522,-2.9525,-2.9571,0,0,0,0,0,0,-2.9394,-2.9398,-2.9413,-2.941,-2.9413,-2.945,-2.9411,-2.9408,-2.9415,-2.9411,-2.9412,-2.941,-2.9399,-2.9431,-2.9436,-2.9462,-2.941,-2.9516,-2.952,-2.9524,-2.9567,-2.9576,-2.9583,0,0,0,0,0,-2.9393,-2.9425,-2.9414,-2.9417,-2.9431,-2.9451,-2.9453,-2.9438,-2.9417,-2.9434,-2.9431,-2.941,-2.9458,-2.9435,-2.944,-2.9467,-2.9515,-2.9519,-2.9524,-2.9564,-2.9574,-2.9582,0,0,0,0,0,0,-2.9431,-2.9424,-2.9412,-2.9444,-2.9449,-2.9444,-2.9464,-2.9449,-2.9459,-2.9455,-2.9438,-2.9439,-2.9474,-2.9474,-2.9449,-2.9514,-2.9483,-2.9489,-2.9512,-2.9522,-2.9529,-2.9528,-2.9412,0,0,0,0,0,-2.9444,-2.9459,-2.9453,-2.9482,-2.9485,-2.9475,-2.9483,-2.9472,-2.9476,-2.9478,-2.9476,-2.9483,-2.95,-2.9511,-2.9525,-2.9568,-2.957,-2.959,-2.9598,-2.9604,-2.9609,-2.9636,-2.9646,-2.954,-2.954,-2.954,0,0,-2.9469,-2.9467,-2.9477,-2.949,-2.9492,-2.9511,-2.9476,-2.9496,-2.9511,-2.9481,-2.9511,-2.9511,-2.9518,-2.9556,-2.9573,-2.9557,-2.9639,-2.961,-2.9615,-2.9616,-2.9642,-2.9652,-2.9661,-2.9543,-2.9543,-2.9542,0,0,-2.9524,-2.9524,-2.955,-2.9554,-2.9558,-2.9552,-2.9559,-2.9558,-2.9557,-2.9587,-2.9567,-2.9586,-2.9614,-2.9621,-2.9628,-2.9694,-2.9677,-2.97,-2.9739,-2.9766,-2.9774,-2.9782,-2.9808,-2.9817,-2.9705,-2.9705,-2.9705,0,-2.9555,-2.958,-2.9565,-2.9588,-2.9596,-2.9571,-2.96,-2.9605,-2.9615,-2.9622,-2.9604,-2.9643,-2.9645,-2.9687,-2.9704,-2.971,-2.972,-2.9698,-2.9774,-2.9781,-2.9788,-2.9813,-2.9822,-2.9708,-2.9707,-2.9707,-2.9707,0,-2.962,-2.9639,-2.966,-2.967,-2.9681,-2.9706,-2.9698,-2.9711,-2.9702,-2.9699,-2.9733,-2.9736,-2.9753,-2.9762,-2.9752,-2.9805,-2.9796,-2.9776,-2.9745,-2.9801,-2.9824,-2.9833,-2.9712,-2.9711,-2.971,-2.9709,0,0,-2.9695,-2.9701,-2.9709,-2.9716,-2.9722,-2.9737,-2.9765,-2.9781,-2.9795,-2.9804,-2.9829,-2.9856,-2.984,-2.9849,-2.984,-2.9864,-2.9921,-2.9842,-2.9843,-2.9858,-2.9984,-2.9998,-3.0009,-2.9911,-2.9912,-2.9914,-2.9984,0,-2.9751,-2.9795,-2.9785,-2.983,-2.985,-2.983,-2.9855,-2.9863,-2.9863,-2.9882,-2.9882,-2.9903,-2.9879,-2.9885,-2.9907,-2.9909,-2.9946,-2.9904,-2.9935,-2.9937,-2.9934,-3.0021,-3.0035,-3.01,-2.9992,-2.9994,-2.9995,0,-2.982,-2.9833,-2.988,-2.9888,-2.9896,-2.9918,-2.9936,-2.9953,-2.9965,-2.9963,-2.9976,-2.9965,-2.9996,-2.9965,-3.001,-2.9982,-2.9996,-2.9999,-3.0002,-3.0004,-2.9969,-3.0026,-3.0121,-3.0131,-3.0009,-3.0008,-3.0007,0,-2.9873,-2.9903,-2.9936,-2.9942,-2.9951,-2.9968,-2.9973,-2.9983,-2.9996,-3.0012,-3.0021,-3.0042,-3.0053,-3.0071,-3.0067,-3.0045,-3.0115,-3.0083,-3.0117,-3.0117,-3.0131,-3.013,-3.023,-3.014,-3.0139,-3.0139,-3.0139,0,-2.9936,-2.9966,-2.996,-2.998,-3.0015,-3.0006,-3.0042,-3.0045,-3.0055,-3.0079,-3.0064,-3.0087,-3.008,-3.0104,-3.0102,-3.0142,-3.0147,-3.0149,-3.0148,-3.015,-3.015,-3.0158,-3.0154,-3.0142,-3.0141,-3.0141,-3.014,0,-2.9999,-2.9996,-3.0031,-3.0039,-3.0042,-3.0068,-3.0076,-3.0097,-3.0098,-3.0128,-3.0135,-3.0137,-3.0165,-3.0163,-3.0194,-3.0194,-3.0244,-3.0237,-3.0239,-3.0238,-3.0273,-3.027,-3.0381,-3.0397,-3.0296,-3.0297,-3.0297,0,-3.0039,-3.0062,-3.0073,-3.0088,-3.0094,-3.0117,-3.0131,-3.0126,-3.0141,-3.016,-3.018,-3.0207,-3.0227,-3.0274,-3.028,-3.0305,-3.03,-3.0338,-3.0303,-3.0307,-3.0303,-3.0302,-3.0306,-3.0344,-3.0345,-3.0346,-3.0346,0,-3.0111,-3.011,-3.0129,-3.0151,-3.0168,-3.0184,-3.0199,-3.0213,-3.021,-3.0229,-3.0257,-3.0274,-3.0308,-3.0336,-3.0362,-3.037,-3.036,-3.0358,-3.0367,-3.037,-3.0371,-3.0373,-3.0258,-3.0355,-3.0354,-3.0353,-3.0353,-3.0352,-3.0165,-3.0186,-3.0199,-3.0223,-3.0235,-3.025,-3.0272,-3.0277,-3.03,-3.0327,-3.0324,-3.0357,-3.0374,-3.0408,-3.0419,-3.0448,-3.0435,-3.0448,-3.0451,-3.0455,-3.046,-3.0367,-3.0452,-3.0452,-3.0452,-3.0452,-3.0451,0,-3.0238,-3.0246,-3.0269,-3.0291,-3.0312,-3.03,-3.0319,-3.0337,-3.0366,-3.0382,-3.0405,-3.0441,-3.047,-3.048,-3.0509,-3.053,-3.0527,-3.0538,-3.0537,-3.054,-3.0468,-3.0458,-3.0541,-3.0541,-3.0541,-3.0541,-3.0541,-3.0541,-3.0278,-3.0315,-3.0316,-3.0361,-3.037,-3.0402,-3.0414,-3.043,-3.0444,-3.0484,-3.0508,-3.0515,-3.0531,-3.0562,-3.059,-3.0593,-3.0605,-3.062,-3.062,-3.0553,-3.0544,-3.0535,-3.0526,-3.0622,-3.0622,-3.069,-3.069,-3.0691]},{"header":{"parameterUnit":"m.s-1","parameterCategory":1,"la1":30.2991,"la2":30.254,"lo1":-89.0895,"lo2":-89.0444,"dy":0.0017,"dx":0.0017,"nx":28,"ny":28,"refTime":"2023-10-28T03:00:00:Z","depth":0,"parameterNumber":3,"parameterNumberName":"V-component_of_WINDS"},"data":[0,0,0,0,0,0,0,0,0,0,0,0,0,0,0,0,0,0,0,0,0,0,0,0,0,0,0,0,0,0,0,0,0,0,0,0,0,0,0,0,0,0,0,0,0,0,0,0,0,0,0,0,0,0,0,0,0,0,1.5188,1.5188,0,1.5208,1.5208,1.5208,1.5308,1.531,1.5313,1.5315,1.5327,1.5325,1.5323,0,0,0,0,0,0,0,0,0,0,0,0,0,1.5231,1.5229,1.5188,1.5188,1.5188,1.5207,1.5208,1.5208,1.5308,1.531,1.5313,1.5316,1.5328,1.5325,1.5323,0,0,0,0,0,0,0,0,0,0,0,0,0,1.5227,1.5229,1.5188,1.5241,1.5246,1.5207,1.5208,1.5208,1.5307,1.5311,1.5314,1.5317,1.5328,1.5326,1.5323,1.5233,0,0,1.5314,1.5313,0,0,0,0,0,0,0,0,1.5227,1.5225,1.5233,1.5237,1.5242,1.5259,1.5227,1.5216,1.5306,1.5283,1.5315,1.5319,1.5301,1.5301,1.5296,1.5233,1.5234,1.5314,1.5312,1.5311,1.531,0,0,0,0,0,0,0,1.5227,1.5225,1.5195,1.5233,1.5238,1.5261,1.5265,1.5226,1.5271,1.5286,1.5293,1.5294,1.5304,1.5299,1.5297,1.5234,1.5314,1.5311,1.5309,1.5308,1.5099,1.5095,0,0,0,0,0,0,1.5221,1.5224,1.5195,1.5196,1.5244,1.5258,1.5261,1.525,1.5272,1.5279,1.5291,1.5299,1.5302,1.53,1.5298,1.5194,1.5311,1.5308,1.5306,1.5103,1.5098,1.5094,0,0,0,0,0,0,1.5221,1.5217,1.5194,1.5212,1.5211,1.5253,1.5239,1.5248,1.5243,1.5277,1.5285,1.5277,1.5305,1.5302,1.5249,1.5196,1.5307,1.5304,1.5107,1.5101,1.5096,1.4985,0,0,0,0,0,0,1.5222,1.5217,1.5184,1.5211,1.521,1.5146,1.5236,1.5246,1.5239,1.5249,1.5266,1.5272,1.5307,1.5253,1.5246,1.5194,1.5302,1.5112,1.5105,1.5098,1.4994,1.4976,1.4961,0,0,0,0,0,1.5223,1.5151,1.5182,1.5178,1.5171,1.5143,1.5142,1.5186,1.5234,1.5201,1.5223,1.5271,1.5203,1.5246,1.524,1.5186,1.5116,1.5107,1.5099,1.5001,1.498,1.4962,0,0,0,0,0,0,1.5113,1.5155,1.5191,1.5125,1.513,1.516,1.5119,1.5163,1.5152,1.5162,1.5215,1.5218,1.5157,1.5167,1.5214,1.51,1.5168,1.5157,1.5096,1.5076,1.506,1.5058,1.5299,0,0,0,0,0,1.5082,1.5059,1.5095,1.5033,1.5035,1.5076,1.5066,1.51,1.5107,1.5108,1.5127,1.5129,1.5108,1.5093,1.5076,1.4997,1.5001,1.4956,1.494,1.4927,1.4916,1.4874,1.4855,1.5066,1.5066,1.5066,0,0,1.5016,1.5036,1.5017,1.5012,1.502,1.4992,1.5077,1.5044,1.5024,1.5103,1.5054,1.5068,1.5074,1.5007,1.4979,1.5013,1.4859,1.4916,1.4905,1.4902,1.4864,1.4843,1.4826,1.506,1.5061,1.5062,0,0,1.4881,1.4894,1.4844,1.4852,1.4864,1.4893,1.4881,1.4905,1.4918,1.4871,1.493,1.4905,1.4868,1.4871,1.4867,1.4735,1.4778,1.4728,1.4642,1.4601,1.4584,1.457,1.4521,1.4503,1.4718,1.4717,1.4717,0,1.4796,1.4759,1.4812,1.4776,1.4771,1.4846,1.4794,1.4798,1.4803,1.4797,1.4837,1.4793,1.4803,1.4737,1.4706,1.4701,1.4687,1.4725,1.4583,1.4569,1.4556,1.451,1.4492,1.4711,1.4712,1.4712,1.4713,0,1.4653,1.4627,1.4585,1.4591,1.4582,1.4538,1.4583,1.4567,1.4603,1.4626,1.4577,1.4592,1.4579,1.4567,1.46,1.4506,1.4527,1.4574,1.4642,1.4529,1.4486,1.4469,1.4702,1.4704,1.4706,1.4708,0,0,1.4446,1.4485,1.4468,1.4472,1.4493,1.4472,1.4431,1.4422,1.4406,1.4408,1.4374,1.4343,1.4387,1.4382,1.4417,1.4381,1.4274,1.4432,1.4433,1.4401,1.417,1.4133,1.4112,1.4305,1.4302,1.4299,1.4169,0,1.4316,1.4251,1.4299,1.4224,1.42,1.4271,1.4236,1.4243,1.4265,1.4245,1.4269,1.4245,1.4306,1.4304,1.4272,1.4294,1.4228,1.4304,1.4271,1.4269,1.4265,1.409,1.4051,1.3927,1.4153,1.415,1.4149,0,1.4155,1.4152,1.4076,1.4102,1.4094,1.4061,1.4057,1.4038,1.4048,1.4066,1.4063,1.4107,1.4067,1.4137,1.4082,1.4132,1.4122,1.4131,1.4127,1.4123,1.42,1.408,1.3889,1.3869,1.4123,1.4125,1.4127,0,1.4009,1.3987,1.3939,1.394,1.397,1.3945,1.3956,1.397,1.3961,1.3957,1.3951,1.3941,1.3935,1.3925,1.3965,1.4012,1.3904,1.3977,1.3916,1.3914,1.3887,1.3888,1.369,1.3884,1.3884,1.3885,1.3885,0,1.3857,1.3807,1.3874,1.3844,1.379,1.3845,1.3789,1.3808,1.382,1.3793,1.3854,1.3827,1.3882,1.386,1.3891,1.384,1.3837,1.3849,1.3857,1.3842,1.384,1.3834,1.3842,1.388,1.3881,1.3882,1.3883,0,1.3685,1.3728,1.3679,1.3713,1.372,1.3679,1.3707,1.3679,1.3707,1.3672,1.3667,1.3708,1.3686,1.3726,1.3708,1.3728,1.3657,1.3679,1.3654,1.3659,1.3595,1.36,1.3384,1.3358,1.3571,1.3569,1.3567,0,1.3584,1.3548,1.3578,1.3566,1.3575,1.3554,1.3547,1.36,1.3589,1.3599,1.3569,1.3553,1.3543,1.3503,1.353,1.3517,1.3538,1.3464,1.3536,1.3522,1.3535,1.3536,1.3532,1.3447,1.3445,1.3443,1.3441,0,1.34,1.3423,1.3412,1.3407,1.3397,1.3396,1.3398,1.3384,1.3441,1.3425,1.3405,1.3397,1.3381,1.3363,1.3356,1.3365,1.3411,1.3419,1.3404,1.3386,1.3372,1.3377,1.3611,1.3423,1.3424,1.3426,1.3427,1.3428,1.3259,1.323,1.3248,1.3232,1.3241,1.3242,1.3218,1.3244,1.3229,1.3221,1.3253,1.3225,1.3236,1.3233,1.3238,1.3215,1.3248,1.3226,1.322,1.3213,1.3202,1.3378,1.3214,1.3215,1.3215,1.3216,1.3216,0,1.3076,1.3092,1.3078,1.3081,1.3069,1.3118,1.3124,1.3109,1.3085,1.3093,1.3082,1.3058,1.3042,1.3069,1.3057,1.3033,1.3054,1.3028,1.3029,1.303,1.3174,1.3188,1.3011,1.3011,1.3011,1.3011,1.3011,1.3011,1.298,1.2934,1.2959,1.2918,1.2933,1.2909,1.2907,1.2908,1.2915,1.2887,1.2875,1.2894,1.2909,1.2899,1.2885,1.2893,1.2885,1.2851,1.2866,1.3,1.302,1.3039,1.3052,1.2849,1.2849,1.2723,1.2722,1.2721]}]]